FW2643 Weather Reports


Display with metric or nautical units.
time (UTC)temp
F
wind
direction
speed
MPH
gust
MPH
rain 1hr
in
rain 24hr
in
rain mn
in
humidity
%
barometer
mb
20181218111506 48 226 4.0 9.0 0.00 0.00 0.00 93 1009.4
20181218110006 48 186 6.0 10.0 0.00 0.00 0.00 93 1009.4
20181218104507 48 150 5.0 7.0 0.00 0.00 0.00 94 1009.4
20181218103006 48 266 4.0 7.0 0.00 0.00 0.00 95 1010.4
20181218101505 48 174 4.0 6.0 0.00 0.00 0.00 95 1010.4
20181218100006 48 217 3.0 6.0 0.00 0.00 0.00 96 1010.4
20181218094506 48 217 4.0 7.0 0.00 0.00 0.00 96 1010.4
20181218093005 48 213 4.0 6.0 0.00 0.00 0.00 96 1010.4
20181218091505 48 227 4.0 10.0 0.00 0.00 0.00 96 1010.4
20181218084507 48 175 3.0 4.0 0.00 0.00 0.00 96 1010.4
20181218083006 48 167 5.0 10.0 0.00 0.00 0.00 97 1010.4
20181218081507 48 183 4.0 8.0 0.00 0.00 0.00 97 1010.4
20181218080006 48 194 3.0 7.0 0.00 0.00 0.00 98 1011.4
20181218074505 47 267 3.0 7.0 0.00 0.00 0.00 98 1011.4
20181218073005 47 201 3.0 6.0 0.00 0.00 0.00 98 1011.4
20181218071505 47 222 3.0 5.0 0.00 0.00 0.00 98 1011.4
20181218070005 47 145 3.0 6.0 0.00 0.00 0.00 98 1011.4
20181218064505 47 214 3.0 4.0 0.00 0.00 0.00 98 1011.4
20181218063006 46 160 2.0 4.0 0.00 0.00 0.00 98 1011.4
20181218061506 45 150 3.0 6.0 0.00 0.00 0.00 98 1011.4
20181218060005 45 153 2.0 4.0 0.00 0.00 0.00 98 1011.4
20181218054505 45 132 2.0 4.0 0.00 0.00 0.00 98 1012.4
20181218053006 46 150 3.0 4.0 0.00 0.00 0.00 98 1012.4
20181218051506 46 133 2.0 6.0 0.00 0.00 0.00 98 1012.4
20181218050006 46 186 2.0 4.0 0.00 0.00 0.00 98 1012.4
20181218044505 45 147 3.0 6.0 0.00 0.00 0.00 98 1012.4
20181218043007 45 138 2.0 3.0 0.00 0.00 0.00 98 1013.4
20181218041507 46 152 3.0 6.0 0.00 0.00 0.00 98 1013.4
20181218040005 46 138 2.0 3.0 0.00 0.00 0.00 98 1013.4
20181218034506 46 138 2.0 4.0 0.00 0.00 0.00 98 1013.4
20181218033006 46 135 2.0 4.0 0.00 0.00 0.00 98 1014.4
20181218031505 46 138 2.0 4.0 0.00 0.00 0.00 98 1014.4
20181218030005 46 237 1.0 2.0 0.00 0.00 0.00 98 1014.4
20181218024506 46 173 2.0 3.0 0.00 0.00 0.00 98 1014.4
20181218023006 46 158 1.0 3.0 0.00 0.00 0.00 98 1014.4
20181218021507 46 229 1.0 6.0 0.00 0.00 0.00 98 1015.4
20181218020005 46 225 1.0 2.0 0.00 0.00 0.00 98 1014.4
20181218014507 45 228 2.0 3.0 0.00 0.00 0.00 98 1014.4
20181218013005 45 222 2.0 3.0 0.00 0.00 0.00 98 1014.4
20181218011507 45 211 1.0 3.0 0.00 0.00 0.00 98 1015.4
20181218010005 44 257 3.0 5.0 0.00 0.00 0.00 98 1014.4
20181218004506 43 213 2.0 4.0 0.00 0.00 0.00 98 1015.4
20181218003005 43 237 2.0 4.0 0.00 0.00 0.00 98 1015.4
20181218001504 43 197 2.0 5.0 0.00 0.00 0.00 98 1015.4
20181218000006 43 135 2.0 3.0 0.00 0.00 0.00 98 1015.4
20181217234505 42 137 0.0 1.0 0.00 0.00 0.00 98 1015.4
20181217233005 42 227 2.0 4.0 0.00 0.00 0.00 98 1015.4
20181217231506 42 224 2.0 4.0 0.00 0.00 0.00 98 1015.4
20181217230005 42 157 2.0 5.0 0.00 0.00 0.00 98 1015.4
20181217224505 42 209 1.0 3.0 0.00 0.00 0.00 98 1015.4
20181217223006 42 230 1.0 3.0 0.00 0.00 0.00 98 1015.4
20181217221505 42 164 1.0 1.0 0.00 0.00 0.00 98 1015.4
20181217220005 42 244 1.0 3.0 0.00 0.00 0.00 98 1015.4
20181217214506 42 144 1.0 2.0 0.00 0.00 0.00 98 1015.4
20181217213005 42 227 1.0 1.0 0.00 0.00 0.00 98 1015.4
20181217211506 42 240 2.0 4.0 0.00 0.00 0.00 98 1015.4
20181217210006 42 243 1.0 2.0 0.00 0.00 0.00 98 1016.4
20181217204506 42 258 1.0 3.0 0.00 0.00 0.00 98 1016.4
20181217203005 41 239 1.0 3.0 0.00 0.00 0.00 98 1016.4
20181217201505 41 197 1.0 2.0 0.00 0.00 0.00 98 1015.4
20181217200005 41 227 0.0 2.0 0.00 0.00 0.00 98 1015.4
20181217194506 41 221 0.0 2.0 0.00 0.00 0.00 98 1015.4
20181217193005 41 184 0.0 1.0 0.00 0.00 0.00 98 1015.4
20181217191506 40 236 1.0 2.0 0.00 0.00 0.00 98 1015.4
20181217190005 40 255 1.0 2.0 0.00 0.00 0.00 98 1015.4
20181217184505 40 243 0.0 2.0 0.00 0.00 0.00 98 1015.4
20181217183006 40 260 2.0 4.0 0.00 0.00 0.00 98 1015.4
20181217181507 40 242 2.0 6.0 0.00 0.00 0.00 98 1015.4
20181217180005 39 243 1.0 3.0 0.00 0.00 0.00 98 1015.4
20181217174506 39 261 1.0 2.0 0.00 0.00 0.00 98 1015.4
20181217173006 38 253 1.0 2.0 0.00 0.00 0.00 98 1015.4
20181217171505 38 276 0.0 1.0 0.00 0.00 0.00 98 1015.4
20181217170005 38 257 0.0 2.0 0.00 0.00 0.00 98 1015.4
20181217164505 38 0 0.0 0.0 0.00 0.00 0.00 98 1015.4
20181217163006 39 235 0.0 1.0 0.00 0.00 0.00 98 1015.4
20181217161505 39 270 0.0 1.0 0.00 0.00 0.00 98 1015.4
20181217160007 40 0 0.0 0.0 0.00 0.00 0.00 98 1015.4
20181217154505 40 248 0.0 1.0 0.00 0.00 0.00 98 1015.4
20181217153006 41 244 1.0 1.0 0.00 0.00 0.00 98 1015.4
20181217151507 42 251 1.0 3.0 0.00 0.00 0.00 98 1015.4
20181217150005 42 264 1.0 2.0 0.00 0.00 0.00 98 1014.4
20181217144506 42 240 1.0 2.0 0.00 0.00 0.00 98 1015.4
20181217143005 43 257 1.0 3.0 0.00 0.00 0.00 98 1014.4
20181217141506 43 263 1.0 5.0 0.00 0.00 0.00 98 1014.4
20181217140006 43 255 2.0 4.0 0.00 0.00 0.00 98 1014.4
20181217134505 43 269 2.0 4.0 0.00 0.00 0.00 98 1014.4
20181217133006 43 266 3.0 4.0 0.00 0.00 0.00 98 1014.4
20181217131505 43 280 3.0 3.0 0.00 0.00 0.00 98 1014.4
20181217130006 43 279 3.0 5.0 0.00 0.00 0.00 98 1013.4
20181217124505 43 269 3.0 4.0 0.00 0.00 0.00 98 1014.4
20181217121505 42 286 2.0 4.0 0.00 0.00 0.00 98 1013.4
20181217120007 42 283 3.0 5.0 0.00 0.00 0.00 98 1013.4
20181217114506 41 293 3.0 4.0 0.00 0.00 0.00 98 1013.4
20181217113007 41 289 3.0 4.0 0.00 0.00 0.00 98 1013.4